Regional Weather Roundup
Issued by NWS Goodland, KS

Home | Current Version | Previous Version | Graphics & Text | Print | Product List | Glossary On
Versions: 1 2 3 4 5 6 7 8 9 10 11 12 13 14 15 16 17 18 19 20 21 22 23 24 25 26 27 28 29 30 31 32 33 34 35 36 37 38 39 40 41 42 43 44 45 46 47 48 49 50
000
ASUS43 KGLD 251208
RWRGLD

GOODLAND FORECAST AREA HOURLY WEATHER ROUNDUP
NATIONAL WEATHER SERVICE GOODLAND KS
600 AM MDT SAT APR 25 2015

...OFFICIAL OBSERVATIONS...

CITY           SKY/WX    TMP DP  RH WIND       PRES   REMARKS
GOODLAND KS    PTCLDY    45  40  82 W10       29.65R
HILL CITY KS   MOCLDY    51  47  86 NW12      29.57R
IMPERIAL NEB   CLEAR     46  41  82 NW14      29.63S
MCCOOK NEB     PTCLDY    49  45  86 NW9       29.59R
AKRON CO       CLEAR     39  35  86 W12       29.70R
BURLINGTON CO  CLEAR     42  36  79 W12       29.69R
LIMON CO       CLEAR     36  29  75 NW6       29.76R
$$

...UNOFFICIAL OBSERVATIONS...

CITY           SKY/WX    TMP DP  RH WIND       PRES   REMARKS
COLBY KS       CLEAR     46  45  93 W13       29.62R
GOVE KS          N/A     48  32  54 MISG        N/A
LENORA KS        N/A     49  32  52 MISG        N/A
NORTON KS      CLEAR     48  45  87 W12       29.56
SHARON SPRINGS   N/A     45  40  84 N9          N/A
TRIBUNE KS     CLEAR     46  45  93 W10       29.69R
KIT CARSON CO    N/A     43  37  80 MISG        N/A
YUMA CO          N/A     41  36  81 CALM        N/A
$$


USA.gov is the U.S. government's official web portal to all federal, state and local government web resources and services.